Regional Weather Roundup
Issued by NWS

Home | Current Version | Previous Version | Text Only | Print | Product List | Glossary Off
Versions: 1 2 3 4 5 6 7 8 9 10 11 12 13 14 15 16 17 18 19 20 21 22 23 24 25 26 27 28 29 30 31 32 33 34 35 36 37 38 39 40 41 42 43 44 45 46 47 48 49 50

000
ASUS43 KLOT 041022
RWRIL

ILLINOIS REGIONAL WEATHER ROUNDUP
NATIONAL WEATHER SERVICE CHICAGO/ROMEOVILLE IL
500 AM CDT FRI SEP 04 2015

NOTE: "FAIR" INDICATES FEW OR NO CLOUDS BELOW 12,000 FEET WITH NO
SIGNIFICANT WEATHER AND/OR OBSTRUCTIONS TO VISIBILITY.

* THESE STATIONS ARE NOT UNDER NWS QUALITY CONTROL. THEY ALSO MAY NOT
  REPORT WEATHER SUCH AS PRECIPITATION OR FOG.

ILZ001-002-007-009-015-016-024-041100-
NORTHWEST ILLINOIS

CITY           SKY/WX    TMP DP  RH WIND       PRES   REMARKS
MOLINE         CLEAR     70  67  90 CALM      29.95S
STERLING*      CLEAR     68  66  94 E6        29.95S
SAVANNA*       PTCLDY    69  66  91 CALM      29.96S
$$

ILZ003-004-008-010-011-017-018-041100-
NORTH CENTRAL ILLINOIS

CITY           SKY/WX    TMP DP  RH WIND       PRES   REMARKS
ROCKFORD       PTCLDY    68  65  90 E3        29.99F
FREEPORT*      PTCLDY    65  64  97 CALM      30.00S FOG
ROCHELLE*      CLEAR     66  65  97 CALM      29.99S FOG
DE KALB*       CLEAR     65  64  97 CALM      29.99F FOG
PERU*          CLEAR     69  67  95 E5        29.98R FOG
$$

ILZ005-006-012>014-019>023-041100-
NORTHEAST ILLINOIS

CITY           SKY/WX    TMP DP  RH WIND       PRES   REMARKS
CHICAGO-OHARE  CLEAR     69  66  90 N3        29.97S
CHICAGO-MIDWAY PTCLDY    73  66  78 CALM      29.97R
AURORA         CLEAR     67  65  93 CALM      29.99R FOG
LANSING*       CLEAR     67  67  97 CALM      29.98S
JOLIET*        CLEAR     68  67  98 CALM      29.97S
WAUKEGAN       MOCLDY    67  65  93 NW5       29.97F
DUPAGE AIRPORT CLEAR     67  64  90 CALM      29.97S
KANKAKEE*      FOG       67  66  99 CALM      29.99R VSB 1/2
WHEELING       CLEAR     68  65  90 CALM      29.99S
MORRIS*        CLEAR     68  66  95 CALM      29.96F FOG
ROMEOVILLE*    CLEAR     67  66  97 CALM      29.98R
NORTHERLY ISL    N/A     69  66  90 NE2         N/A
$$

LMZ740>746-041100-
SOUTHERN LAKE MICHIGAN

STATION/POSITION SKY/WX   TEMP    WIND        PRES    VSBY  WAVE
                          AIR SEA DIR/SP/G                  HT/PER
                          (F)     (DEG/KT/KT) (MB)    (MI)  (FT/S)
SOUTHERN BUOY              67 71  350/ 10/ 12 1014.3R
WILMETTE HARBOR            68 70  140/  4/  6   N/A           1/ 2
HARRISON CRIB              69     340/  4/  5   N/A
BURNHAM HARBOR             70      40/  3/  6   N/A
CALUMET HARBOR             70     330/  2/  4   N/A
BURNS HARBOR               72      20/  6/  6 1015.2R
MICHIGAN CITY              71     350/  7/  7   N/A
MICHIGAN CITY 6N           71 73   10/  6/  8   N/A           2/ 4
ST. JOSEPH                 70 74   50/  8/ 12   N/A           1/ 4
$$

ILZ025>027-034>036-040-047-049-050-058-095>099-041100-
WEST-CENTRAL ILLINOIS

CITY           SKY/WX    TMP DP  RH WIND       PRES   REMARKS
QUINCY         CLEAR     73  68  84 S5        29.97S
GALESBURG*     CLEAR     66  65  97 CALM      29.96S
MACOMB*        CLEAR     67  66  96 CALM      29.99S
JACKSONVILLE*  CLEAR     73  69  86 SW6       29.97S
PITTSFIELD*    CLEAR     73  68  86 CALM      29.99S
$$

ILZ028>032-037-038-041>044-048-051>054-059>061-041100-
CENTRAL ILLINOIS

CITY           SKY/WX    TMP DP  RH WIND       PRES   REMARKS
PONTIAC        CLEAR     69  68  99 E3        29.98S FOG
BLOOMINGTON    CLEAR     71  67  87 SW6       29.99S
DECATUR        CLEAR     72  66  81 S3        29.99R
PEORIA         CLEAR     74  67  78 CALM      29.97R
LACON*         CLEAR     70  68  94 CALM      29.96R
LINCOLN*       CLEAR     68  64  86 CALM      29.97S
SPRINGFIELD    MOCLDY    70  66  87 CALM      29.98R
TAYLORVILLE    CLEAR     68  66  94 CALM      29.98S
$$

ILZ033-039-045-046-055>057-062-063-041100-
EAST-CENTRAL ILLINOIS

CITY           SKY/WX    TMP DP  RH WIND       PRES   REMARKS
CHAMPAIGN      CLEAR     68  66  93 SW6       29.99R FOG
RANTOUL*       CLEAR     73  68  83 NE5       29.98R
MATTOON        CLEAR     75  67  76 SW6       29.98S
PARIS*         CLEAR     68  66  93 CALM      30.00R
$$

ILZ079-100>102-041100-
SOUTHWEST ILLINOIS

CITY           SKY/WX    TMP DP  RH WIND       PRES   REMARKS
ALTON          CLEAR     67  67  98 CALM      29.98S FOG
BELLEVILLE     CLEAR     71  71 100 CALM      29.98R
CAHOKIA*       CLEAR     69  67  93 CALM      29.98R FOG
SPARTA*        CLEAR     70  68  94 CALM      30.00R
$$

ILZ064>066-069>071-074>076-080>082-084>086-088>090-092>094-041100-
SOUTH-CENTRAL ILLINOIS

CITY           SKY/WX    TMP DP  RH WIND       PRES   REMARKS
CARBONDALE     CLEAR     67  66  97 CALM      29.99R FOG
CAIRO*         CLEAR     65  65 100 CALM      29.98S FOG
EFFINGHAM*     CLEAR     68  65  91 CALM      30.01R
MARION         CLEAR     70  68  94 CALM      30.00R FOG
MT. VERNON     CLEAR     64  61  88 CALM      30.01R
CENTRALIA*     CLEAR     68  68  99 CALM      29.98S
SALEM*         CLEAR     68  66  93 CALM      29.99R
METROPOLIS*    FOG       66  66 100 CALM      30.00R VSB 3/4
$$

ILZ067-068-072-073-078-083-087-091-041100-
SOUTHEAST ILLINOIS

CITY           SKY/WX    TMP DP  RH WIND       PRES   REMARKS
LAWRENCEVILLE  CLEAR     68  66  93 S3        29.99S FOG
FLORA*         CLEAR     67  65  95 CALM      29.99S
FAIRFIELD*     CLEAR     67  66  97 CALM      29.99R
HARRISBURG*    CLOUDY    66  65  97 CALM      29.99S FOG
ROBINSON*      PTCLDY    65  64  96 CALM      30.00R FOG
CARMI*         FOG       65  65 100 CALM      29.98S VSB 3/4
$$

ABBREVIATIONS USED IN REMARKS
   TC - TEMPERATURE IN CELSIUS
  WCI - WIND CHILL INDEX
   HX - HEAT INDEX
  VSB - VISIBILITY
$$




USA.gov is the U.S. government's official web portal to all federal, state and local government web resources and services.